Precipitable_Water
0.51 0.51 0.51 0.51 0.50 0.50 0.49 0.48 0.47 0.46 0.45 0.44 0.45 0.47 0.48 0.49 0.50 0.50 0.50 0.51 0.52 0.53 0.55 0.56 0.59 0.61 0.62 0.62 0.62 0.61 0.61 0.49 0.40 0.32 0.27 0.23 0.33 0.34 0.31 0.44 0.47 0.47 0.49 0.49 0.63 0.65 0.52 0.57 0.59 0.77 0.85 1.02 1.01 1.12 1.36 1.32 1.35 1.26 1.00 0.94 0.85 0.99 0.96 1.09 1.05 1.09 1.14 1.04 1.18 1.30 1.25 1.24 1.18 1.24 1.22 1.30 1.27 1.32 1.32 1.33 1.37 1.44 1.44 1.50 1.58 1.68 1.72 1.77
0.51 0.51 0.50 0.51 0.50 0.47 0.47 0.45 0.45 0.44 0.44 0.44 0.44 0.45 0.47 0.48 0.47 0.46 0.47 0.49 0.50 0.49 0.51 0.54 0.58 0.61 0.62 0.62 0.63 0.63 0.59 0.50 0.38 0.35 0.28 0.28 0.34 0.37 0.36 0.33 0.36 0.44 0.50 0.40 0.43 0.60 0.51 0.48 0.56 0.73 0.80 0.81 1.14 0.98 1.27 1.12 1.29 1.01 0.94 0.93 0.86 0.99 1.09 1.20 1.22 1.21 1.13 1.09 1.17 1.23 1.22 1.18 1.16 1.20 1.26 1.12 1.19 1.20 1.19 1.24 1.29 1.31 1.40 1.53 1.59 1.62 1.65 1.72
0.49 0.49 0.49 0.48 0.48 0.49 0.49 0.48 0.48 0.46 0.44 0.44 0.44 0.47 0.47 0.47 0.46 0.46 0.47 0.46 0.49 0.49 0.49 0.51 0.57 0.61 0.63 0.64 0.64 0.64 0.57 0.45 0.41 0.30 0.31 0.35 0.38 0.36 0.36 0.36 0.37 0.47 0.44 0.32 0.34 0.51 0.56 0.46 0.53 0.67 0.77 0.77 0.98 0.89 1.06 1.05 1.13 1.09 0.91 0.83 0.92 1.10 1.17 1.21 1.25 1.18 1.21 1.14 1.16 1.19 1.15 1.14 1.19 1.15 1.31 1.15 1.17 1.18 1.18 1.17 1.24 1.22 1.24 1.39 1.46 1.55 1.60 1.65
0.46 0.45 0.45 0.46 0.46 0.46 0.45 0.43 0.43 0.43 0.44 0.45 0.45 0.43 0.42 0.43 0.45 0.45 0.44 0.46 0.47 0.49 0.48 0.50 0.54 0.61 0.65 0.66 0.67 0.63 0.55 0.45 0.31 0.32 0.40 0.43 0.36 0.38 0.36 0.37 0.39 0.47 0.44 0.36 0.34 0.41 0.57 0.63 0.57 0.62 0.66 0.68 0.84 0.98 0.95 1.01 0.91 1.07 0.93 0.76 0.91 1.08 1.07 1.16 1.20 1.19 1.19 1.18 1.10 1.17 1.18 1.10 1.16 1.25 1.12 1.19 1.12 1.17 1.26 1.34 1.22 1.20 1.24 1.31 1.45 1.50 1.54 1.56
0.43 0.43 0.44 0.44 0.42 0.42 0.42 0.44 0.44 0.44 0.43 0.41 0.41 0.41 0.42 0.42 0.42 0.43 0.43 0.43 0.45 0.48 0.50 0.51 0.55 0.61 0.68 0.71 0.66 0.64 0.50 0.30 0.28 0.42 0.46 0.44 0.39 0.35 0.37 0.37 0.40 0.43 0.38 0.33 0.34 0.38 0.47 0.53 0.62 0.61 0.61 0.58 0.77 0.90 0.87 0.99 0.94 0.98 0.93 0.96 0.94 1.03 1.05 1.20 1.22 1.22 1.15 1.16 1.05 1.13 1.09 1.06 1.21 1.19 1.12 1.14 1.05 1.03 1.19 1.36 1.37 1.35 1.35 1.30 1.36 1.45 1.50 1.48
0.41 0.42 0.42 0.42 0.41 0.40 0.42 0.40 0.38 0.38 0.38 0.38 0.38 0.40 0.41 0.41 0.41 0.41 0.42 0.43 0.43 0.46 0.49 0.54 0.59 0.61 0.69 0.72 0.65 0.58 0.44 0.14 0.45 0.45 0.51 0.47 0.39 0.37 0.37 0.37 0.41 0.40 0.36 0.29 0.27 0.33 0.42 0.47 0.54 0.56 0.54 0.59 0.67 0.72 0.86 0.87 0.99 0.71 0.90 0.99 1.04 1.09 1.06 1.18 1.19 1.21 1.18 1.13 1.09 1.08 1.12 1.14 1.14 1.09 1.24 1.22 1.14 1.13 1.34 1.42 1.39 1.31 1.29 1.29 1.36 1.40 1.42 1.45
0.42 0.41 0.41 0.41 0.41 0.39 0.38 0.38 0.39 0.39 0.37 0.37 0.38 0.37 0.38 0.38 0.40 0.41 0.41 0.42 0.43 0.45 0.49 0.56 0.61 0.65 0.67 0.69 0.61 0.51 0.39 0.36 0.43 0.51 0.48 0.44 0.39 0.45 0.40 0.41 0.47 0.40 0.35 0.26 0.23 0.28 0.38 0.46 0.53 0.55 0.53 0.55 0.69 0.76 0.85 0.86 0.90 0.82 0.80 0.91 0.95 1.12 1.05 1.13 1.13 1.19 1.14 1.12 1.13 1.17 1.14 1.03 1.13 1.00 1.15 1.14 1.19 1.25 1.35 1.43 1.45 1.35 1.31 1.34 1.29 1.34 1.36 1.40
0.41 0.40 0.39 0.38 0.37 0.36 0.36 0.36 0.36 0.35 0.35 0.35 0.34 0.35 0.35 0.36 0.37 0.39 0.41 0.42 0.42 0.43 0.47 0.55 0.63 0.66 0.68 0.58 0.48 0.39 0.37 0.33 0.40 0.49 0.51 0.44 0.42 0.42 0.48 0.48 0.43 0.38 0.31 0.24 0.20 0.21 0.35 0.42 0.49 0.59 0.55 0.51 0.65 0.75 0.82 0.80 0.89 0.77 0.78 0.90 0.97 1.06 1.07 1.08 1.08 1.13 1.13 1.11 1.13 1.19 1.00 1.00 0.97 0.99 1.03 1.07 1.19 1.26 1.36 1.43 1.43 1.36 1.27 1.27 1.27 1.29 1.33 1.38
0.40 0.39 0.38 0.38 0.37 0.36 0.35 0.34 0.33 0.32 0.34 0.32 0.33 0.33 0.34 0.35 0.37 0.39 0.40 0.41 0.42 0.42 0.46 0.56 0.62 0.67 0.70 0.58 0.45 0.36 0.33 0.44 0.49 0.50 0.53 0.46 0.41 0.42 0.44 0.43 0.46 0.34 0.28 0.26 0.22 0.20 0.31 0.38 0.51 0.60 0.52 0.57 0.74 0.70 0.78 0.72 0.71 0.80 0.82 0.88 0.90 0.98 1.06 1.07 1.06 1.06 1.11 1.09 1.08 1.09 0.93 1.01 1.01 1.06 0.98 1.05 1.21 1.29 1.40 1.38 1.36 1.28 1.21 1.18 1.19 1.27 1.30 1.35
0.38 0.38 0.37 0.36 0.36 0.35 0.34 0.33 0.32 0.32 0.31 0.31 0.30 0.30 0.32 0.34 0.37 0.38 0.39 0.40 0.41 0.41 0.45 0.54 0.62 0.68 0.59 0.48 0.43 0.29 0.40 0.51 0.53 0.56 0.57 0.54 0.46 0.37 0.35 0.34 0.39 0.35 0.29 0.26 0.24 0.21 0.28 0.38 0.50 0.65 0.68 0.67 0.75 0.68 0.73 0.69 0.68 0.86 0.88 0.88 0.88 0.90 0.95 1.01 1.00 1.03 1.07 1.06 1.08 1.01 0.92 0.88 0.96 0.90 0.95 1.10 1.23 1.34 1.37 1.32 1.35 1.25 1.13 1.17 1.15 1.22 1.29 1.33
0.38 0.36 0.35 0.35 0.34 0.33 0.32 0.32 0.32 0.31 0.29 0.29 0.28 0.28 0.30 0.34 0.37 0.38 0.39 0.39 0.40 0.41 0.46 0.54 0.62 0.61 0.47 0.49 0.34 0.30 0.51 0.50 0.53 0.52 0.57 0.55 0.48 0.36 0.30 0.34 0.35 0.31 0.30 0.28 0.23 0.21 0.31 0.42 0.60 0.69 0.65 0.57 0.65 0.65 0.67 0.68 0.74 0.77 0.80 0.88 0.87 0.87 0.89 0.90 1.01 1.04 1.04 1.01 1.10 1.02 0.96 0.91 0.93 0.90 0.90 1.02 1.21 1.35 1.33 1.29 1.25 1.21 1.13 1.16 1.18 1.18 1.25 1.31
0.37 0.36 0.34 0.34 0.33 0.32 0.32 0.31 0.30 0.29 0.29 0.27 0.27 0.28 0.31 0.34 0.36 0.37 0.39 0.39 0.39 0.41 0.47 0.55 0.59 0.58 0.51 0.44 0.36 0.37 0.56 0.55 0.61 0.68 0.63 0.59 0.51 0.40 0.35 0.34 0.36 0.32 0.29 0.25 0.23 0.24 0.35 0.47 0.62 0.62 0.48 0.60 0.53 0.66 0.67 0.73 0.69 0.70 0.74 0.69 0.77 0.82 0.78 0.86 0.82 0.89 0.98 0.96 1.06 1.03 0.89 0.79 0.83 0.76 1.00 1.02 1.15 1.28 1.29 1.27 1.23 1.17 1.15 1.11 1.16 1.17 1.18 1.24
0.37 0.35 0.35 0.33 0.33 0.32 0.31 0.31 0.30 0.28 0.27 0.26 0.27 0.29 0.32 0.34 0.34 0.37 0.39 0.40 0.41 0.44 0.50 0.53 0.57 0.57 0.45 0.29 0.36 0.39 0.46 0.52 0.55 0.55 0.57 0.61 0.54 0.50 0.36 0.35 0.39 0.38 0.31 0.27 0.24 0.26 0.41 0.53 0.64 0.59 0.57 0.60 0.58 0.51 0.68 0.73 0.69 0.70 0.68 0.67 0.65 0.68 0.70 0.81 0.83 0.82 0.90 0.95 1.04 1.00 0.68 0.66 0.70 0.75 0.98 1.03 1.09 1.23 1.26 1.22 1.23 1.21 1.19 1.18 1.14 1.13 1.19 1.21
0.37 0.36 0.34 0.34 0.33 0.33 0.32 0.31 0.29 0.27 0.26 0.26 0.28 0.30 0.31 0.34 0.37 0.39 0.42 0.41 0.42 0.49 0.53 0.56 0.57 0.50 0.42 0.27 0.32 0.39 0.46 0.58 0.61 0.58 0.55 0.57 0.51 0.46 0.40 0.37 0.43 0.41 0.34 0.29 0.30 0.40 0.50 0.61 0.66 0.61 0.64 0.58 0.56 0.78 0.64 0.63 0.68 0.59 0.66 0.66 0.57 0.59 0.60 0.76 0.77 0.74 0.69 0.87 0.96 0.99 0.69 0.67 0.69 0.73 1.00 1.01 1.03 1.05 1.10 1.16 1.19 1.22 1.20 1.19 1.19 1.14 1.15 1.17
0.37 0.36 0.34 0.34 0.33 0.33 0.32 0.31 0.29 0.26 0.26 0.27 0.29 0.31 0.33 0.35 0.38 0.41 0.43 0.42 0.44 0.51 0.56 0.58 0.54 0.45 0.32 0.28 0.42 0.39 0.51 0.57 0.54 0.54 0.58 0.53 0.48 0.44 0.43 0.38 0.39 0.40 0.34 0.30 0.42 0.58 0.64 0.67 0.65 0.55 0.47 0.55 0.59 0.58 0.53 0.55 0.55 0.53 0.51 0.46 0.54 0.52 0.57 0.68 0.72 0.68 0.62 0.75 0.88 0.85 0.62 0.62 0.66 0.72 0.96 1.03 1.04 1.05 1.07 1.14 1.19 1.23 1.26 1.22 1.22 1.18 1.17 1.15
0.37 0.37 0.35 0.33 0.34 0.33 0.32 0.30 0.28 0.26 0.27 0.29 0.31 0.31 0.33 0.35 0.36 0.42 0.43 0.44 0.60 0.62 0.55 0.40 0.46 0.46 0.34 0.23 0.25 0.48 0.55 0.46 0.47 0.56 0.60 0.59 0.52 0.47 0.44 0.41 0.38 0.43 0.41 0.34 0.45 0.55 0.61 0.63 0.52 0.49 0.45 0.45 0.43 0.44 0.43 0.45 0.46 0.47 0.44 0.43 0.44 0.50 0.54 0.61 0.66 0.69 0.66 0.69 0.78 0.75 0.59 0.59 0.63 0.77 0.92 0.97 1.03 1.04 1.06 1.12 1.17 1.22 1.26 1.23 1.19 1.21 1.22 1.18
0.37 0.36 0.34 0.33 0.34 0.33 0.31 0.30 0.27 0.27 0.29 0.31 0.34 0.33 0.32 0.34 0.35 0.43 0.52 0.62 0.71 0.72 0.52 0.35 0.61 0.58 0.22 0.48 0.60 0.43 0.39 0.48 0.56 0.55 0.58 0.60 0.53 0.50 0.48 0.40 0.36 0.36 0.43 0.44 0.42 0.47 0.50 0.46 0.45 0.41 0.39 0.33 0.35 0.39 0.35 0.33 0.34 0.37 0.42 0.39 0.44 0.45 0.50 0.45 0.59 0.61 0.63 0.61 0.64 0.71 0.62 0.63 0.65 0.69 0.90 0.96 1.00 1.02 1.03 1.09 1.13 1.18 1.23 1.22 1.21 1.20 1.21 1.18
0.36 0.36 0.33 0.33 0.33 0.32 0.30 0.28 0.26 0.28 0.30 0.34 0.35 0.34 0.32 0.33 0.36 0.52 0.58 0.64 0.63 0.67 0.69 0.62 0.58 0.44 0.26 0.38 0.25 0.24 0.42 0.49 0.54 0.55 0.56 0.59 0.55 0.50 0.48 0.41 0.38 0.35 0.36 0.37 0.42 0.37 0.44 0.37 0.38 0.25 0.25 0.26 0.27 0.31 0.27 0.22 0.27 0.30 0.36 0.35 0.36 0.41 0.46 0.50 0.45 0.52 0.54 0.58 0.59 0.67 0.59 0.61 0.67 0.77 0.84 0.93 1.01 1.02 1.04 1.08 1.13 1.13 1.18 1.22 1.26 1.20 1.20 1.20
0.38 0.35 0.34 0.33 0.32 0.31 0.29 0.28 0.26 0.27 0.31 0.36 0.37 0.37 0.32 0.37 0.34 0.55 0.45 0.46 0.29 0.24 0.28 0.46 0.34 0.14 0.12 0.34 0.45 0.40 0.39 0.54 0.58 0.56 0.51 0.51 0.53 0.52 0.51 0.50 0.39 0.34 0.29 0.27 0.29 0.31 0.39 0.36 0.37 0.27 0.19 0.19 0.21 0.24 0.26 0.28 0.33 0.33 0.36 0.33 0.32 0.32 0.36 0.39 0.47 0.54 0.52 0.53 0.52 0.60 0.59 0.57 0.66 0.76 0.81 0.89 0.98 1.03 1.06 1.05 1.07 1.10 1.13 1.17 1.22 1.21 1.22 1.21
0.37 0.36 0.35 0.34 0.31 0.30 0.29 0.27 0.27 0.27 0.33 0.36 0.34 0.33 0.26 0.15 0.14 0.19 0.35 0.17 0.15 0.15 0.13 0.13 0.32 0.44 0.36 0.31 0.34 0.48 0.55 0.53 0.45 0.51 0.53 0.53 0.50 0.48 0.48 0.51 0.41 0.39 0.33 0.24 0.26 0.27 0.36 0.28 0.26 0.21 0.20 0.21 0.21 0.24 0.27 0.30 0.33 0.36 0.38 0.38 0.33 0.32 0.33 0.40 0.44 0.52 0.54 0.52 0.51 0.57 0.59 0.60 0.63 0.71 0.80 0.88 0.92 0.93 0.96 0.96 1.00 1.05 1.08 1.12 1.17 1.18 1.19 1.19
0.37 0.36 0.35 0.33 0.31 0.29 0.27 0.26 0.27 0.26 0.33 0.38 0.38 0.31 0.15 0.15 0.10 0.09 0.14 0.16 0.19 0.19 0.17 0.16 0.15 0.15 0.21 0.32 0.37 0.40 0.36 0.38 0.40 0.45 0.50 0.56 0.48 0.47 0.45 0.53 0.47 0.38 0.33 0.31 0.27 0.33 0.32 0.26 0.23 0.26 0.28 0.26 0.24 0.23 0.26 0.27 0.29 0.31 0.34 0.36 0.34 0.34 0.31 0.36 0.40 0.49 0.54 0.49 0.54 0.57 0.57 0.61 0.61 0.68 0.79 0.84 0.83 0.85 0.88 0.94 0.99 1.03 1.07 1.11 1.13 1.13 1.15 1.21
0.37 0.36 0.35 0.33 0.31 0.28 0.27 0.26 0.30 0.27 0.34 0.40 0.39 0.24 0.21 0.19 0.21 0.23 0.22 0.13 0.16 0.18 0.16 0.16 0.17 0.16 0.17 0.20 0.38 0.43 0.37 0.32 0.33 0.38 0.48 0.48 0.44 0.41 0.47 0.49 0.43 0.34 0.36 0.35 0.35 0.34 0.27 0.20 0.22 0.29 0.34 0.33 0.31 0.27 0.23 0.24 0.24 0.27 0.30 0.33 0.32 0.33 0.36 0.39 0.38 0.47 0.52 0.51 0.52 0.57 0.53 0.58 0.62 0.66 0.79 0.77 0.76 0.84 0.87 0.89 0.94 0.99 1.02 1.04 1.08 1.13 1.16 1.23
0.37 0.35 0.34 0.33 0.30 0.28 0.26 0.26 0.31 0.29 0.35 0.37 0.33 0.24 0.21 0.23 0.24 0.24 0.25 0.20 0.13 0.16 0.17 0.15 0.14 0.13 0.13 0.16 0.25 0.37 0.28 0.27 0.26 0.33 0.38 0.44 0.43 0.43 0.44 0.43 0.40 0.39 0.40 0.38 0.31 0.28 0.24 0.21 0.23 0.33 0.35 0.34 0.31 0.30 0.27 0.23 0.24 0.25 0.28 0.29 0.27 0.31 0.30 0.30 0.36 0.42 0.47 0.49 0.49 0.53 0.52 0.53 0.60 0.65 0.76 0.79 0.78 0.85 0.88 0.91 0.97 0.96 0.95 1.02 1.08 1.14 1.15 1.20
0.37 0.35 0.34 0.31 0.31 0.28 0.26 0.27 0.31 0.30 0.36 0.39 0.31 0.24 0.26 0.25 0.23 0.25 0.20 0.14 0.12 0.11 0.17 0.20 0.18 0.16 0.14 0.13 0.17 0.27 0.24 0.26 0.28 0.27 0.40 0.40 0.38 0.42 0.36 0.34 0.34 0.36 0.34 0.35 0.32 0.27 0.21 0.27 0.33 0.31 0.36 0.34 0.30 0.28 0.29 0.27 0.21 0.24 0.27 0.28 0.28 0.28 0.28 0.30 0.35 0.38 0.44 0.47 0.49 0.50 0.49 0.51 0.55 0.54 0.65 0.76 0.81 0.84 0.93 0.92 0.95 0.97 1.01 1.08 1.14 1.17 1.17 1.16
0.38 0.36 0.34 0.32 0.29 0.31 0.25 0.29 0.24 0.28 0.37 0.37 0.23 0.24 0.23 0.24 0.24 0.25 0.21 0.17 0.16 0.18 0.34 0.29 0.26 0.18 0.15 0.23 0.18 0.14 0.24 0.26 0.27 0.31 0.37 0.38 0.36 0.37 0.33 0.35 0.36 0.33 0.36 0.38 0.35 0.30 0.28 0.35 0.39 0.32 0.30 0.33 0.30 0.28 0.27 0.30 0.27 0.24 0.25 0.29 0.29 0.28 0.28 0.30 0.36 0.39 0.38 0.39 0.46 0.45 0.42 0.42 0.51 0.53 0.57 0.71 0.76 0.78 0.91 0.86 0.87 0.94 1.01 1.08 1.08 1.11 1.20 1.22
0.38 0.36 0.34 0.31 0.30 0.31 0.29 0.22 0.23 0.34 0.33 0.25 0.22 0.24 0.24 0.23 0.25 0.27 0.22 0.14 0.09 0.27 0.31 0.22 0.28 0.24 0.24 0.16 0.20 0.15 0.19 0.20 0.29 0.30 0.35 0.38 0.40 0.36 0.36 0.32 0.35 0.31 0.38 0.40 0.35 0.33 0.29 0.36 0.37 0.31 0.27 0.27 0.29 0.28 0.31 0.31 0.30 0.28 0.25 0.28 0.29 0.27 0.29 0.30 0.34 0.34 0.32 0.32 0.42 0.48 0.38 0.39 0.47 0.47 0.51 0.61 0.68 0.70 0.83 0.80 0.81 0.89 0.97 1.00 0.99 1.06 1.12 1.13
0.39 0.37 0.34 0.32 0.30 0.34 0.20 0.16 0.33 0.35 0.26 0.22 0.24 0.24 0.23 0.23 0.27 0.26 0.18 0.13 0.17 0.29 0.24 0.31 0.28 0.27 0.25 0.19 0.17 0.15 0.09 0.12 0.27 0.33 0.31 0.40 0.33 0.37 0.32 0.30 0.33 0.34 0.41 0.45 0.39 0.31 0.36 0.36 0.35 0.33 0.28 0.26 0.26 0.25 0.29 0.31 0.26 0.24 0.30 0.28 0.24 0.23 0.27 0.30 0.32 0.32 0.30 0.36 0.41 0.43 0.39 0.33 0.37 0.41 0.47 0.50 0.61 0.67 0.74 0.78 0.80 0.82 0.88 0.92 0.95 1.04 1.09 1.11
0.39 0.37 0.35 0.33 0.32 0.35 0.30 0.32 0.36 0.30 0.27 0.28 0.27 0.25 0.22 0.24 0.27 0.27 0.22 0.06 0.12 0.27 0.25 0.31 0.31 0.38 0.33 0.27 0.21 0.11 0.12 0.19 0.14 0.21 0.31 0.39 0.36 0.31 0.30 0.30 0.30 0.29 0.33 0.37 0.25 0.31 0.38 0.33 0.34 0.29 0.27 0.25 0.23 0.25 0.28 0.29 0.24 0.21 0.26 0.26 0.24 0.20 0.23 0.28 0.30 0.30 0.30 0.31 0.29 0.37 0.41 0.34 0.33 0.41 0.49 0.48 0.48 0.61 0.67 0.72 0.75 0.80 0.86 0.90 0.94 1.03 1.10 1.10
0.39 0.37 0.35 0.36 0.35 0.36 0.42 0.37 0.38 0.31 0.33 0.29 0.23 0.22 0.24 0.27 0.25 0.20 0.14 0.06 0.20 0.28 0.43 0.29 0.42 0.36 0.32 0.29 0.23 0.16 0.11 0.20 0.16 0.23 0.23 0.34 0.41 0.32 0.25 0.28 0.32 0.31 0.32 0.33 0.28 0.34 0.37 0.39 0.37 0.32 0.27 0.23 0.26 0.28 0.29 0.27 0.22 0.22 0.25 0.28 0.29 0.28 0.22 0.25 0.26 0.27 0.28 0.27 0.24 0.27 0.37 0.32 0.31 0.38 0.43 0.47 0.43 0.50 0.57 0.69 0.73 0.78 0.85 0.87 0.90 0.97 1.05 1.08
0.40 0.38 0.36 0.38 0.39 0.34 0.34 0.42 0.39 0.40 0.31 0.24 0.24 0.23 0.24 0.24 0.20 0.14 0.17 0.06 0.29 0.20 0.34 0.34 0.31 0.29 0.32 0.27 0.22 0.20 0.15 0.14 0.19 0.23 0.25 0.23 0.34 0.39 0.33 0.33 0.30 0.29 0.28 0.31 0.30 0.33 0.36 0.40 0.41 0.34 0.26 0.27 0.29 0.31 0.31 0.26 0.23 0.25 0.23 0.26 0.28 0.28 0.26 0.20 0.22 0.24 0.24 0.21 0.22 0.26 0.27 0.30 0.30 0.38 0.39 0.38 0.37 0.44 0.56 0.65 0.74 0.80 0.84 0.86 0.88 0.92 0.98 1.03
0.42 0.39 0.36 0.41 0.36 0.38 0.37 0.27 0.29 0.30 0.30 0.24 0.24 0.25 0.25 0.24 0.13 0.10 0.06 0.17 0.23 0.25 0.31 0.31 0.28 0.33 0.29 0.25 0.23 0.27 0.21 0.19 0.17 0.20 0.22 0.26 0.29 0.34 0.34 0.28 0.31 0.26 0.26 0.26 0.26 0.29 0.32 0.34 0.34 0.34 0.33 0.30 0.32 0.33 0.35 0.33 0.27 0.26 0.25 0.24 0.26 0.23 0.22 0.20 0.16 0.20 0.17 0.16 0.21 0.24 0.25 0.27 0.22 0.29 0.38 0.42 0.44 0.47 0.55 0.59 0.67 0.73 0.78 0.84 0.89 0.95 0.97 1.03
0.44 0.40 0.40 0.42 0.46 0.50 0.34 0.27 0.28 0.37 0.28 0.25 0.24 0.23 0.23 0.11 0.16 0.10 0.08 0.25 0.16 0.24 0.24 0.25 0.28 0.28 0.29 0.30 0.27 0.30 0.29 0.26 0.24 0.21 0.21 0.23 0.26 0.28 0.29 0.24 0.24 0.21 0.19 0.21 0.21 0.27 0.28 0.28 0.32 0.35 0.37 0.30 0.28 0.29 0.33 0.33 0.31 0.28 0.28 0.26 0.19 0.17 0.17 0.14 0.16 0.12 0.12 0.13 0.19 0.22 0.24 0.23 0.22 0.25 0.33 0.42 0.47 0.47 0.55 0.59 0.64 0.68 0.73 0.82 0.91 0.98 1.02 1.06
0.46 0.42 0.47 0.52 0.55 0.48 0.45 0.44 0.42 0.36 0.24 0.26 0.25 0.24 0.19 0.12 0.06 0.11 0.11 0.18 0.16 0.23 0.23 0.28 0.26 0.27 0.29 0.29 0.28 0.30 0.34 0.29 0.31 0.28 0.25 0.25 0.24 0.29 0.32 0.29 0.29 0.24 0.17 0.22 0.22 0.23 0.24 0.30 0.32 0.33 0.34 0.34 0.30 0.24 0.26 0.27 0.28 0.27 0.25 0.23 0.17 0.14 0.13 0.11 0.12 0.13 0.12 0.14 0.18 0.19 0.22 0.19 0.22 0.24 0.28 0.30 0.39 0.42 0.48 0.58 0.74 0.76 0.75 0.81 0.90 0.98 1.02 1.05
0.49 0.46 0.50 0.58 0.57 0.56 0.51 0.48 0.43 0.32 0.25 0.29 0.26 0.23 0.19 0.12 0.10 0.15 0.14 0.16 0.18 0.25 0.26 0.24 0.26 0.28 0.29 0.26 0.30 0.32 0.28 0.33 0.35 0.33 0.31 0.26 0.24 0.23 0.30 0.32 0.31 0.28 0.27 0.26 0.21 0.21 0.19 0.23 0.27 0.29 0.28 0.34 0.32 0.27 0.27 0.27 0.26 0.24 0.24 0.23 0.17 0.15 0.13 0.10 0.11 0.10 0.11 0.14 0.14 0.15 0.15 0.13 0.15 0.17 0.26 0.27 0.31 0.38 0.43 0.50 0.67 0.76 0.81 0.83 0.91 0.95 0.98 1.01
0.54 0.47 0.57 0.58 0.56 0.60 0.52 0.57 0.36 0.28 0.33 0.31 0.27 0.21 0.13 0.14 0.15 0.16 0.16 0.19 0.22 0.24 0.22 0.24 0.23 0.26 0.28 0.30 0.33 0.34 0.30 0.28 0.32 0.31 0.32 0.27 0.24 0.23 0.26 0.29 0.33 0.31 0.31 0.24 0.25 0.23 0.22 0.22 0.27 0.34 0.34 0.35 0.31 0.30 0.31 0.31 0.28 0.26 0.26 0.25 0.21 0.16 0.19 0.14 0.14 0.13 0.13 0.13 0.15 0.14 0.10 0.11 0.13 0.17 0.22 0.26 0.29 0.32 0.37 0.53 0.64 0.71 0.74 0.80 0.85 0.90 0.93 0.96
0.54 0.47 0.58 0.56 0.56 0.57 0.50 0.41 0.35 0.31 0.35 0.30 0.24 0.19 0.16 0.19 0.16 0.21 0.18 0.22 0.22 0.20 0.21 0.22 0.21 0.23 0.25 0.28 0.31 0.28 0.31 0.29 0.31 0.32 0.29 0.28 0.27 0.26 0.29 0.33 0.34 0.34 0.30 0.25 0.25 0.22 0.23 0.21 0.29 0.34 0.36 0.34 0.34 0.34 0.31 0.34 0.22 0.24 0.24 0.19 0.18 0.24 0.21 0.18 0.17 0.17 0.17 0.16 0.14 0.19 0.16 0.15 0.14 0.16 0.19 0.17 0.20 0.25 0.27 0.52 0.63 0.64 0.70 0.74 0.74 0.80 0.84 0.91
0.51 0.50 0.51 0.52 0.53 0.57 0.52 0.42 0.37 0.34 0.38 0.30 0.24 0.18 0.20 0.20 0.22 0.20 0.22 0.20 0.20 0.21 0.20 0.17 0.18 0.20 0.22 0.24 0.27 0.28 0.27 0.29 0.30 0.31 0.27 0.30 0.27 0.32 0.33 0.33 0.40 0.41 0.39 0.33 0.28 0.30 0.24 0.22 0.29 0.32 0.31 0.33 0.36 0.36 0.34 0.35 0.34 0.27 0.20 0.20 0.25 0.27 0.25 0.19 0.15 0.18 0.15 0.13 0.13 0.15 0.13 0.15 0.14 0.11 0.15 0.19 0.18 0.18 0.19 0.24 0.66 0.74 0.75 0.74 0.77 0.79 0.84 0.89
0.54 0.49 0.56 0.51 0.52 0.62 0.48 0.42 0.34 0.40 0.36 0.30 0.23 0.21 0.22 0.18 0.22 0.19 0.21 0.20 0.18 0.20 0.18 0.18 0.19 0.22 0.21 0.23 0.26 0.29 0.29 0.25 0.29 0.31 0.30 0.33 0.32 0.46 0.41 0.40 0.45 0.48 0.47 0.45 0.34 0.33 0.31 0.25 0.30 0.32 0.32 0.34 0.36 0.36 0.34 0.36 0.36 0.29 0.24 0.28 0.21 0.19 0.17 0.19 0.16 0.14 0.15 0.13 0.13 0.14 0.15 0.15 0.16 0.14 0.15 0.15 0.16 0.18 0.20 0.21 0.28 0.69 0.78 0.77 0.77 0.80 0.85 0.88
0.58 0.52 0.46 0.45 0.50 0.49 0.44 0.36 0.37 0.37 0.33 0.26 0.25 0.18 0.21 0.20 0.22 0.21 0.21 0.18 0.16 0.17 0.16 0.20 0.19 0.22 0.24 0.24 0.28 0.32 0.30 0.25 0.32 0.32 0.31 0.35 0.33 0.45 0.44 0.47 0.41 0.45 0.46 0.46 0.39 0.34 0.35 0.27 0.29 0.35 0.33 0.34 0.35 0.33 0.27 0.29 0.34 0.35 0.32 0.28 0.29 0.24 0.18 0.16 0.15 0.16 0.17 0.16 0.15 0.15 0.16 0.14 0.18 0.19 0.18 0.18 0.20 0.20 0.19 0.21 0.23 0.48 0.62 0.69 0.72 0.74 0.79 0.84
0.54 0.44 0.46 0.51 0.49 0.50 0.43 0.38 0.37 0.37 0.32 0.26 0.23 0.21 0.23 0.20 0.22 0.24 0.22 0.20 0.18 0.17 0.16 0.18 0.21 0.20 0.23 0.25 0.27 0.28 0.31 0.30 0.31 0.32 0.34 0.36 0.36 0.49 0.46 0.49 0.45 0.46 0.46 0.45 0.39 0.41 0.35 0.34 0.26 0.32 0.38 0.36 0.29 0.30 0.27 0.28 0.27 0.28 0.30 0.27 0.27 0.25 0.25 0.20 0.19 0.15 0.16 0.15 0.18 0.17 0.15 0.18 0.21 0.23 0.21 0.21 0.22 0.23 0.21 0.21 0.23 0.45 0.53 0.57 0.61 0.65 0.72 0.79
0.61 0.51 0.46 0.57 0.58 0.54 0.43 0.37 0.32 0.32 0.28 0.26 0.26 0.24 0.25 0.23 0.22 0.21 0.22 0.24 0.19 0.23 0.20 0.19 0.19 0.19 0.20 0.22 0.23 0.29 0.30 0.31 0.32 0.32 0.35 0.37 0.40 0.39 0.49 0.50 0.51 0.47 0.49 0.43 0.41 0.44 0.36 0.35 0.29 0.31 0.34 0.32 0.29 0.31 0.30 0.31 0.31 0.29 0.28 0.27 0.25 0.23 0.20 0.16 0.15 0.19 0.16 0.16 0.16 0.18 0.18 0.24 0.29 0.31 0.30 0.27 0.25 0.25 0.23 0.24 0.25 0.47 0.52 0.56 0.59 0.64 0.71 0.77
0.53 0.39 0.42 0.57 0.60 0.63 0.43 0.29 0.31 0.36 0.29 0.26 0.25 0.25 0.25 0.30 0.25 0.23 0.23 0.23 0.22 0.22 0.26 0.23 0.23 0.21 0.22 0.23 0.25 0.26 0.28 0.29 0.31 0.33 0.35 0.34 0.43 0.45 0.49 0.55 0.52 0.54 0.47 0.40 0.44 0.49 0.45 0.44 0.36 0.32 0.32 0.34 0.32 0.33 0.34 0.34 0.34 0.33 0.32 0.28 0.27 0.24 0.22 0.18 0.14 0.16 0.17 0.16 0.19 0.20 0.20 0.25 0.33 0.36 0.34 0.30 0.27 0.27 0.26 0.26 0.27 0.50 0.54 0.57 0.63 0.69 0.75 0.78
0.52 0.48 0.59 0.66 0.63 0.55 0.40 0.32 0.35 0.33 0.30 0.31 0.33 0.31 0.31 0.29 0.26 0.26 0.23 0.26 0.22 0.25 0.23 0.23 0.24 0.23 0.24 0.23 0.25 0.25 0.28 0.29 0.32 0.32 0.35 0.39 0.43 0.49 0.56 0.55 0.56 0.51 0.50 0.47 0.48 0.49 0.47 0.35 0.31 0.32 0.36 0.37 0.38 0.36 0.35 0.35 0.34 0.33 0.33 0.31 0.28 0.24 0.22 0.21 0.19 0.21 0.18 0.18 0.15 0.18 0.18 0.23 0.33 0.35 0.37 0.32 0.30 0.29 0.28 0.28 0.28 0.38 0.57 0.60 0.63 0.68 0.75 0.77
0.56 0.56 0.54 0.63 0.67 0.57 0.40 0.31 0.31 0.31 0.31 0.32 0.32 0.30 0.33 0.30 0.27 0.25 0.23 0.27 0.26 0.24 0.23 0.21 0.24 0.27 0.24 0.26 0.25 0.24 0.30 0.27 0.33 0.35 0.36 0.42 0.41 0.52 0.55 0.56 0.55 0.49 0.48 0.50 0.47 0.55 0.38 0.40 0.39 0.32 0.34 0.33 0.35 0.36 0.34 0.35 0.36 0.33 0.31 0.30 0.30 0.28 0.26 0.26 0.25 0.26 0.20 0.20 0.17 0.15 0.14 0.19 0.33 0.37 0.34 0.34 0.33 0.31 0.29 0.31 0.33 0.45 0.54 0.61 0.63 0.68 0.70 0.70
0.60 0.61 0.61 0.62 0.65 0.57 0.39 0.38 0.34 0.33 0.32 0.31 0.32 0.29 0.29 0.29 0.30 0.29 0.28 0.26 0.27 0.27 0.25 0.24 0.26 0.26 0.25 0.27 0.25 0.28 0.31 0.32 0.33 0.40 0.42 0.41 0.43 0.52 0.53 0.53 0.54 0.50 0.52 0.59 0.56 0.55 0.42 0.41 0.36 0.29 0.28 0.25 0.24 0.26 0.26 0.28 0.30 0.33 0.34 0.33 0.30 0.28 0.27 0.26 0.22 0.23 0.19 0.21 0.20 0.16 0.15 0.24 0.34 0.34 0.33 0.35 0.35 0.33 0.35 0.35 0.33 0.58 0.61 0.61 0.62 0.66 0.68 0.69
0.49 0.39 0.53 0.56 0.61 0.52 0.50 0.54 0.45 0.38 0.35 0.33 0.30 0.31 0.31 0.29 0.33 0.33 0.31 0.29 0.31 0.31 0.29 0.27 0.26 0.25 0.26 0.27 0.26 0.27 0.31 0.36 0.35 0.35 0.39 0.39 0.43 0.47 0.51 0.54 0.52 0.50 0.56 0.59 0.56 0.53 0.42 0.43 0.38 0.37 0.37 0.34 0.38 0.42 0.49 0.43 0.33 0.31 0.32 0.34 0.32 0.29 0.28 0.28 0.26 0.23 0.19 0.23 0.20 0.20 0.18 0.22 0.25 0.30 0.32 0.33 0.35 0.35 0.36 0.35 0.32 0.34 0.57 0.66 0.68 0.68 0.71 0.70
0.54 0.46 0.42 0.40 0.51 0.49 0.47 0.50 0.47 0.45 0.37 0.37 0.28 0.33 0.31 0.33 0.34 0.31 0.36 0.28 0.32 0.29 0.27 0.25 0.25 0.24 0.27 0.29 0.28 0.28 0.32 0.32 0.37 0.38 0.38 0.38 0.42 0.46 0.51 0.51 0.52 0.51 0.56 0.54 0.57 0.51 0.44 0.39 0.41 0.43 0.45 0.44 0.49 0.50 0.53 0.51 0.39 0.32 0.32 0.31 0.32 0.30 0.26 0.25 0.23 0.21 0.24 0.23 0.19 0.24 0.24 0.23 0.25 0.26 0.30 0.32 0.33 0.36 0.38 0.42 0.42 0.46 0.63 0.67 0.70 0.70 0.75 0.75
0.41 0.48 0.51 0.57 0.45 0.40 0.42 0.41 0.45 0.42 0.43 0.40 0.34 0.38 0.34 0.32 0.32 0.29 0.33 0.33 0.32 0.32 0.27 0.30 0.29 0.30 0.29 0.29 0.30 0.26 0.29 0.31 0.33 0.30 0.36 0.39 0.40 0.44 0.43 0.49 0.48 0.50 0.52 0.52 0.57 0.50 0.43 0.37 0.43 0.43 0.44 0.48 0.50 0.53 0.54 0.49 0.48 0.37 0.33 0.32 0.30 0.29 0.27 0.23 0.23 0.26 0.24 0.21 0.21 0.28 0.28 0.25 0.28 0.29 0.29 0.28 0.30 0.33 0.36 0.45 0.41 0.53 0.55 0.55 0.74 0.77 0.76 0.77
0.52 0.52 0.52 0.58 0.43 0.47 0.47 0.46 0.46 0.46 0.42 0.40 0.38 0.36 0.34 0.34 0.32 0.34 0.33 0.29 0.28 0.30 0.33 0.25 0.27 0.27 0.29 0.30 0.27 0.26 0.27 0.25 0.27 0.32 0.33 0.36 0.38 0.41 0.40 0.44 0.47 0.50 0.48 0.50 0.53 0.52 0.45 0.40 0.42 0.42 0.42 0.44 0.48 0.54 0.53 0.47 0.44 0.42 0.37 0.34 0.33 0.30 0.27 0.25 0.24 0.28 0.26 0.23 0.25 0.36 0.34 0.31 0.32 0.33 0.32 0.31 0.29 0.29 0.34 0.52 0.45 0.62 0.66 0.53 0.50 0.62 0.71 0.77
0.47 0.46 0.44 0.55 0.52 0.47 0.47 0.48 0.46 0.43 0.40 0.44 0.35 0.36 0.36 0.35 0.33 0.35 0.37 0.34 0.29 0.29 0.31 0.26 0.27 0.27 0.27 0.27 0.27 0.24 0.27 0.30 0.30 0.27 0.33 0.35 0.36 0.41 0.41 0.43 0.43 0.46 0.48 0.46 0.50 0.52 0.45 0.39 0.43 0.40 0.38 0.42 0.48 0.55 0.52 0.48 0.44 0.41 0.40 0.39 0.34 0.32 0.29 0.27 0.26 0.26 0.29 0.26 0.25 0.38 0.42 0.38 0.42 0.41 0.42 0.41 0.37 0.31 0.38 0.50 0.45 0.53 0.61 0.60 0.55 0.59 0.65 0.71
0.61 0.63 0.61 0.48 0.42 0.44 0.47 0.47 0.43 0.42 0.38 0.40 0.38 0.39 0.38 0.38 0.35 0.38 0.36 0.39 0.33 0.30 0.30 0.28 0.29 0.27 0.28 0.27 0.26 0.25 0.30 0.31 0.32 0.32 0.35 0.37 0.33 0.41 0.39 0.40 0.46 0.42 0.45 0.43 0.49 0.50 0.48 0.42 0.44 0.40 0.34 0.39 0.50 0.53 0.51 0.49 0.47 0.44 0.42 0.41 0.35 0.31 0.27 0.26 0.25 0.26 0.25 0.27 0.26 0.33 0.39 0.42 0.44 0.47 0.47 0.43 0.35 0.36 0.55 0.51 0.48 0.50 0.55 0.63 0.69 0.67 0.71 0.76
0.68 0.69 0.67 0.56 0.41 0.46 0.42 0.45 0.45 0.42 0.35 0.41 0.41 0.41 0.39 0.41 0.42 0.41 0.34 0.39 0.38 0.38 0.35 0.33 0.31 0.29 0.27 0.28 0.27 0.29 0.32 0.32 0.34 0.36 0.38 0.38 0.39 0.39 0.40 0.40 0.43 0.43 0.42 0.43 0.49 0.47 0.47 0.43 0.38 0.37 0.32 0.38 0.49 0.53 0.51 0.49 0.44 0.37 0.38 0.43 0.41 0.37 0.37 0.29 0.28 0.28 0.27 0.31 0.28 0.29 0.38 0.50 0.46 0.48 0.42 0.40 0.39 0.40 0.49 0.47 0.46 0.51 0.54 0.52 0.63 0.82 0.82 0.83
Wind_Speed
18 18 18 18 18 19 19 19 19 19 19 19 19 20 19 19 19 18 18 17 17 16 16 16 15 15 14 14 13 13 13 13 13 14 15 16 16 17 17 16 15 15 16 16 16 15 15 15 15 15 14 13 12 11 11 10 10 8 6 6 6 4 3 3 3 2 1 1 1 2 3 2 2 3 4 5 4 5 7 6 6 6 8 11 13 17 19 19
19 19 19 19 19 19 20 20 20 20 20 20 20 20 20 20 19 19 18 18 17 17 16 16 16 15 15 14 14 13 12 13 14 15 17 17 17 18 18 18 16 16 16 17 18 17 16 16 16 16 14 13 12 12 11 10 11 10 7 7 7 5 4 4 4 3 0 0 1 2 3 2 2 3 3 3 4 4 5 7 8 9 10 11 14 17 18 19
19 20 20 20 20 20 20 21 21 21 21 21 21 21 21 20 20 20 19 18 18 17 17 16 16 15 15 14 13 13 12 12 13 14 15 16 18 20 19 18 17 17 17 17 19 19 18 17 17 16 15 13 13 13 12 11 11 11 9 8 7 6 5 5 5 4 2 1 1 3 3 2 3 3 3 3 4 4 5 7 8 10 11 12 14 16 18 18
20 21 21 21 21 21 22 22 22 22 22 21 21 21 21 21 20 20 20 19 18 18 17 17 16 15 15 14 13 12 12 12 12 11 11 12 15 18 20 19 18 18 18 18 18 20 19 18 18 17 16 14 14 13 12 11 11 10 10 9 8 7 5 6 7 7 5 3 3 3 4 3 4 5 4 4 4 4 4 7 8 10 12 12 14 16 17 18
21 22 22 22 22 22 23 23 23 23 22 22 22 22 22 21 21 21 20 19 19 18 18 17 16 15 15 14 13 12 11 10 8 7 8 9 12 16 19 19 19 18 18 18 19 20 20 19 19 18 16 14 14 14 13 13 12 10 11 11 9 8 6 6 7 8 7 5 4 4 5 3 5 4 3 4 4 3 5 8 10 11 12 13 14 15 17 18
22 23 23 23 23 24 24 24 24 24 23 23 23 23 22 22 21 21 20 20 19 19 18 17 16 15 15 14 13 12 11 10 9 7 7 7 8 14 18 19 19 18 18 18 19 20 21 20 19 18 16 14 14 14 13 14 14 11 10 11 10 9 8 7 6 7 7 6 6 5 6 5 5 4 4 6 5 4 6 9 11 11 11 13 13 14 16 17
23 24 24 24 24 25 25 25 25 25 25 24 24 23 23 23 22 21 20 20 19 19 18 18 17 16 15 14 13 13 13 14 14 11 9 7 7 11 16 19 19 19 18 19 19 20 21 21 20 18 16 15 15 15 15 15 15 13 11 11 10 10 10 8 6 7 7 7 7 7 6 6 6 5 6 6 6 6 7 10 11 11 11 12 13 14 15 15
24 24 25 25 25 25 25 26 26 25 25 25 25 24 24 24 23 22 21 20 20 19 19 18 17 16 15 14 14 14 15 16 15 14 13 10 9 10 13 18 20 20 20 20 20 21 21 21 21 19 17 16 15 15 16 15 15 15 13 11 11 11 12 10 9 8 9 9 8 8 7 7 8 6 5 6 8 7 9 11 11 10 11 11 12 14 14 15
25 25 25 25 26 26 26 26 26 26 26 26 26 25 25 25 24 23 22 21 20 20 19 18 17 16 15 15 15 14 16 16 14 15 14 13 12 11 13 16 19 21 21 21 21 21 22 21 21 20 17 17 17 16 16 15 14 14 14 13 12 13 13 12 11 10 10 9 7 8 8 9 10 7 5 8 9 8 10 11 10 11 11 11 11 13 14 14
26 26 26 26 27 27 27 27 27 27 27 27 26 26 26 25 25 24 23 22 21 21 20 19 18 17 16 16 15 15 16 15 14 15 15 14 13 13 14 15 18 21 21 21 21 22 23 22 21 20 18 17 17 17 17 16 14 15 16 16 14 13 14 13 14 13 10 9 8 8 8 8 10 7 6 8 9 10 11 10 11 11 11 11 11 12 13 14
27 27 27 27 28 28 28 28 28 28 27 27 27 27 27 26 26 25 24 24 23 22 20 20 18 17 17 17 16 17 16 15 14 15 16 15 15 15 16 16 18 20 21 21 22 23 23 23 21 19 19 17 18 18 18 18 16 16 17 16 17 16 14 13 14 15 12 9 10 10 9 9 10 9 9 10 10 11 11 11 11 11 10 11 11 11 12 13
27 28 28 28 29 29 29 29 29 29 28 28 28 27 27 27 27 26 25 25 23 22 21 20 19 18 18 18 19 20 18 16 15 16 17 16 16 16 16 17 17 19 21 21 21 23 24 24 22 20 19 17 18 17 17 19 18 18 17 16 16 17 16 15 14 15 13 11 12 12 10 10 10 10 12 12 11 13 12 11 11 11 10 10 11 11 11 12
28 28 28 28 29 29 29 29 29 30 30 29 29 28 28 27 28 27 26 25 24 23 22 21 20 20 19 19 21 23 21 20 19 19 19 18 17 16 16 17 17 18 20 21 21 22 24 24 22 22 21 19 18 17 16 17 18 18 18 16 15 16 17 17 16 15 14 12 13 13 11 10 9 11 15 15 14 14 12 11 10 10 10 10 11 10 11 12
28 28 29 29 29 29 30 29 30 30 30 30 30 29 29 28 28 27 26 26 25 24 23 22 21 21 21 21 23 24 24 23 22 21 21 20 19 18 16 17 18 17 19 21 21 21 23 23 23 22 22 21 19 17 18 17 17 16 16 16 15 14 14 15 16 15 15 14 14 14 12 10 9 12 18 16 15 14 13 12 10 10 10 9 11 10 10 11
29 29 29 30 30 30 30 30 30 30 30 30 30 30 29 29 28 27 26 26 25 24 24 23 22 22 22 23 24 23 23 23 23 23 22 21 21 20 18 18 19 19 19 21 21 21 21 22 23 22 21 21 20 19 18 17 16 16 15 15 15 15 14 13 14 14 15 14 16 16 12 10 9 13 21 18 15 15 13 13 11 11 11 10 10 10 10 11
30 30 30 31 31 31 31 31 31 30 30 29 30 29 29 29 29 27 26 25 24 23 23 23 23 23 22 22 22 21 21 22 23 24 23 21 22 21 20 20 19 20 20 20 21 21 21 21 22 22 21 21 20 19 18 17 17 16 17 15 14 15 15 14 14 15 16 15 16 16 12 10 9 13 20 18 17 16 12 13 13 12 12 10 10 10 10 10
31 31 31 31 31 31 31 31 31 30 30 30 29 29 28 29 28 26 24 23 23 23 24 24 23 24 24 23 21 21 21 22 23 24 24 23 23 22 21 21 20 20 21 20 21 21 21 21 21 21 22 21 20 20 19 20 19 16 17 17 16 16 16 16 15 16 17 16 16 16 15 12 10 14 20 19 18 16 13 13 13 12 12 11 10 11 11 11
32 32 32 31 31 31 31 31 31 30 30 29 29 29 28 28 26 24 22 23 24 24 25 25 24 24 24 23 23 22 21 21 23 23 24 25 24 25 23 22 21 21 22 21 21 22 21 20 20 20 21 22 22 22 22 21 20 18 17 17 17 17 17 17 16 14 16 18 17 16 17 13 11 15 19 19 19 16 14 13 12 12 12 12 11 11 12 11
32 32 32 32 32 32 31 32 31 30 30 29 29 29 27 25 24 23 22 23 25 25 26 26 26 25 24 24 25 25 23 22 23 24 25 25 25 26 25 24 23 23 23 21 21 22 21 20 21 21 22 23 23 24 23 21 20 20 19 17 18 18 18 18 17 15 15 19 19 17 17 15 14 17 17 18 19 16 15 13 12 13 12 12 12 12 12 12
33 33 32 32 33 32 32 32 31 30 30 28 28 27 25 24 24 23 24 26 27 28 30 31 31 31 30 29 28 26 25 24 23 24 25 26 25 26 26 25 25 24 24 22 21 23 22 21 23 23 22 23 25 25 24 22 22 22 20 18 19 19 18 18 18 17 15 18 20 17 17 17 16 18 19 19 18 16 15 14 13 13 12 12 12 12 12 12
33 33 32 33 33 33 32 32 31 30 30 29 28 26 24 24 24 26 29 30 29 30 33 35 35 35 33 33 32 28 25 25 24 24 25 26 26 26 26 26 25 25 24 23 22 22 24 24 24 23 22 23 24 25 25 25 24 24 22 19 19 18 18 18 19 18 15 17 20 18 17 18 18 18 20 20 18 17 17 16 14 14 13 12 13 13 13 12
33 33 33 33 33 33 33 32 31 31 29 27 27 25 24 25 26 28 31 31 30 31 35 36 37 37 35 34 35 32 28 27 27 26 26 27 27 26 25 26 26 24 24 25 24 23 25 25 24 22 22 23 23 24 26 27 26 25 23 21 20 19 18 18 19 18 17 17 19 19 17 18 19 19 21 21 18 18 19 18 16 16 14 14 14 14 13 13
33 33 34 33 34 34 32 32 31 29 27 27 26 25 26 27 28 29 30 31 31 33 35 36 37 37 35 33 35 34 31 29 29 28 27 28 29 28 26 26 26 25 25 27 26 25 25 23 23 23 22 23 24 24 25 26 26 25 24 22 21 20 19 17 17 18 18 17 19 20 18 18 19 20 21 22 20 19 20 19 18 18 16 14 15 15 14 14
34 34 34 34 34 33 33 31 29 27 27 27 26 26 28 29 29 30 30 30 30 30 31 33 34 34 34 31 32 34 33 31 30 29 29 30 29 28 28 26 26 27 27 29 29 28 26 21 21 24 24 24 25 25 25 25 25 26 26 24 22 22 22 19 17 17 18 18 19 20 19 18 20 20 21 22 21 20 20 19 19 19 17 15 15 15 14 15
35 35 35 35 34 34 33 30 26 27 28 26 26 28 29 29 29 30 30 28 26 24 24 25 27 29 30 30 31 32 32 32 33 30 29 31 30 28 28 27 27 28 28 29 30 29 28 23 21 24 25 26 25 25 26 24 23 25 27 27 24 22 23 22 19 17 17 18 20 21 18 18 20 21 21 22 22 21 21 21 19 19 17 16 16 15 15 15
36 36 35 35 34 34 32 27 26 29 28 26 28 30 30 29 29 29 28 25 23 20 18 18 20 21 24 29 31 30 30 32 34 33 31 32 32 30 28 28 27 28 29 28 27 27 27 26 24 24 25 26 26 25 25 25 23 23 25 26 26 24 23 23 21 19 18 18 20 22 19 15 18 21 20 22 24 23 23 22 21 20 19 18 17 16 16 16
36 36 36 35 34 33 29 26 28 29 27 28 30 31 30 29 29 28 24 21 19 17 14 14 16 16 18 24 28 29 28 28 30 35 34 32 33 32 30 29 27 28 27 26 27 28 27 28 28 26 25 25 26 25 24 25 24 22 21 23 26 27 26 25 22 21 19 17 19 23 23 18 18 20 20 20 22 24 24 23 21 20 20 20 18 17 17 17
37 36 36 35 33 31 28 27 28 27 27 30 31 31 30 29 29 25 20 18 16 14 14 14 15 15 16 20 28 30 27 24 25 32 36 35 33 33 32 32 29 28 28 28 29 27 26 29 30 28 27 25 25 24 23 24 25 22 20 21 23 26 27 26 23 21 20 18 18 21 23 20 19 20 20 21 21 23 25 25 22 22 21 21 20 19 19 18
37 36 35 34 32 30 28 27 27 27 28 30 31 30 29 29 27 21 18 18 15 14 15 16 16 16 17 19 26 29 28 26 23 25 33 37 35 34 33 32 31 29 29 31 30 26 25 28 29 28 28 26 24 23 23 25 24 22 21 21 21 23 25 26 24 22 20 20 20 20 20 19 19 20 21 21 21 22 24 25 23 23 22 22 21 20 20 19
37 37 35 33 30 28 27 27 27 28 29 30 30 30 29 27 23 19 19 18 16 15 17 17 17 17 17 16 21 26 28 29 26 23 27 33 35 35 33 32 32 30 30 32 32 29 27 26 27 29 28 26 24 23 24 25 24 22 22 22 21 21 22 24 24 23 21 21 22 22 20 18 17 20 22 23 21 20 22 24 24 23 23 23 22 21 22 21
38 37 35 31 28 28 27 27 27 27 29 29 29 28 26 22 19 18 18 18 17 17 17 18 18 19 18 17 19 23 26 29 28 25 25 28 33 35 33 31 32 31 30 31 32 31 30 28 27 27 29 28 25 24 24 24 24 23 22 22 21 19 20 21 22 24 22 21 22 23 21 20 18 19 20 21 21 21 21 23 24 25 24 24 22 21 22 22
38 37 34 30 27 26 25 25 26 27 28 28 27 25 22 19 17 17 19 19 19 18 18 20 21 21 22 21 19 21 23 25 28 28 26 27 31 34 34 33 31 31 32 31 30 30 32 32 28 26 28 29 28 25 24 24 25 25 23 23 21 18 19 20 21 22 22 19 19 21 21 21 21 19 19 18 19 21 21 22 24 25 25 25 23 22 22 22
38 36 31 27 25 25 24 24 25 26 26 26 24 21 19 18 16 17 18 19 20 21 21 22 23 23 23 22 20 19 20 22 24 28 29 28 29 33 35 35 32 31 31 30 28 28 29 31 32 30 28 29 30 27 26 25 26 26 26 24 22 19 18 19 19 19 19 18 19 20 20 21 22 21 20 18 18 20 20 21 25 26 26 26 25 24 24 23
37 33 28 25 24 23 22 22 23 25 25 23 20 19 18 16 15 16 17 18 21 24 23 24 24 23 22 21 20 17 18 20 20 21 27 29 29 31 34 36 36 32 29 28 29 29 28 28 33 34 28 28 31 30 27 25 25 27 26 24 23 21 19 17 17 16 15 15 18 21 20 20 20 21 21 20 19 20 19 20 25 27 25 25 26 25 24 23
35 30 25 24 23 22 21 21 22 24 23 21 19 17 16 15 15 16 17 18 20 23 25 25 24 22 21 20 19 14 13 19 18 18 22 26 29 30 31 33 36 34 30 28 29 30 30 29 30 32 30 28 29 30 28 25 25 26 26 25 25 24 20 16 16 17 14 12 15 19 19 18 18 19 22 21 20 22 21 20 24 26 25 25 26 26 25 24
32 27 24 22 22 21 20 21 23 23 21 19 17 16 15 16 17 17 18 19 20 21 24 24 22 22 21 21 20 16 15 17 17 17 20 23 25 28 29 31 33 35 33 30 29 28 29 29 27 29 33 32 29 29 30 28 25 24 27 28 25 22 22 18 15 16 16 15 15 17 17 17 18 18 19 21 21 23 24 22 24 26 26 26 25 26 25 24
30 26 23 22 22 21 21 23 23 21 19 17 16 16 15 15 16 17 18 19 20 20 21 22 21 21 22 22 22 20 19 18 17 17 18 19 20 20 22 25 26 29 33 33 32 29 27 27 27 28 32 34 31 29 31 31 27 24 28 28 22 20 23 21 17 15 16 16 16 18 19 17 18 18 18 20 21 23 24 24 25 26 26 26 24 25 25 25
29 26 23 22 21 21 24 24 20 18 17 16 16 16 15 15 17 18 18 20 20 19 19 20 21 21 21 22 23 22 20 19 18 18 17 17 16 13 15 20 19 20 24 28 32 32 29 26 27 29 32 32 31 29 30 32 31 27 25 26 24 22 23 23 20 16 16 15 14 17 20 19 19 19 19 21 22 22 23 24 25 27 26 25 24 25 25 25
29 26 21 20 20 22 24 22 18 18 16 15 15 16 16 16 18 19 20 20 19 18 18 19 20 22 21 21 23 23 21 19 18 18 17 17 16 14 14 19 20 19 19 23 27 31 32 28 25 28 30 30 31 31 32 33 33 30 25 25 26 24 23 23 22 18 16 14 14 15 16 17 18 18 19 21 21 20 22 22 24 27 27 26 25 25 25 25
28 24 20 20 21 22 23 20 18 17 16 15 16 16 16 16 17 19 21 20 18 16 16 18 20 22 23 23 24 23 22 21 20 20 20 18 18 17 16 16 18 20 21 24 25 27 31 31 28 27 27 29 32 34 34 33 34 33 29 27 27 25 23 23 23 22 18 15 13 13 13 14 15 15 18 20 19 19 19 19 22 27 28 26 25 25 24 23
28 24 20 22 24 24 23 20 17 16 15 15 16 16 17 18 19 18 19 20 18 16 16 17 19 21 22 24 24 23 23 24 22 21 22 20 19 19 18 15 15 17 20 23 23 23 26 29 29 28 25 27 32 35 35 34 33 33 30 27 27 26 24 22 22 23 22 18 15 13 12 13 12 13 16 19 18 17 17 16 18 25 28 26 25 25 25 24
28 23 22 24 26 27 23 18 16 16 15 15 16 17 17 18 19 18 18 19 18 16 15 15 17 18 19 22 24 23 23 25 23 22 22 21 21 21 20 17 16 16 18 22 23 23 26 28 30 29 26 26 29 32 34 33 33 33 31 28 27 27 26 24 21 21 22 21 18 15 12 11 10 12 15 18 18 16 17 15 16 22 26 25 24 25 25 24
28 26 25 25 27 27 22 17 16 16 15 16 17 18 17 17 17 17 17 18 17 15 14 13 14 16 18 20 22 23 23 24 24 22 21 21 21 22 20 18 18 18 19 22 24 23 26 29 28 27 26 25 25 29 33 32 31 32 33 31 29 28 28 25 21 20 20 21 20 17 14 12 10 8 9 15 16 15 15 15 15 20 24 24 24 25 24 24
29 28 25 25 27 25 19 16 16 16 16 17 17 17 17 16 16 16 16 16 16 15 13 13 13 15 16 18 21 22 22 22 23 21 20 22 23 23 21 19 19 20 20 22 22 23 25 27 26 24 24 23 22 24 30 33 32 31 33 35 32 29 28 26 22 20 19 21 22 18 15 14 11 6 5 9 12 14 14 13 14 19 21 22 24 24 24 24
30 28 24 25 27 22 17 16 16 16 16 16 16 17 16 15 16 16 16 16 16 14 12 12 13 15 16 17 20 22 20 21 22 20 21 23 24 23 23 21 20 21 21 20 21 24 27 28 28 25 25 24 21 21 26 31 33 32 31 35 35 32 29 26 24 22 19 20 22 20 18 17 13 8 6 6 9 13 14 12 13 17 21 23 23 24 24 24
30 27 25 26 25 19 16 16 17 15 15 15 15 16 16 16 16 16 15 15 15 13 13 13 14 14 14 15 18 20 19 20 21 20 21 23 24 24 24 23 22 22 19 18 19 23 27 29 30 29 28 26 24 22 22 25 31 34 32 32 36 35 31 26 24 24 21 19 21 21 19 18 16 13 11 8 10 12 12 10 10 13 20 23 23 24 24 23
27 25 25 25 22 18 16 16 16 15 16 17 16 16 17 17 16 15 14 14 14 14 13 13 12 12 12 13 16 19 19 19 20 21 22 23 24 26 26 25 25 23 19 17 19 21 25 27 28 28 28 27 26 24 22 21 26 33 34 32 33 36 36 30 25 25 23 19 19 20 20 19 17 16 14 12 12 12 11 10 9 11 16 21 23 24 24 24
25 24 25 24 21 18 16 16 17 17 17 18 16 16 17 16 15 14 14 14 14 13 12 11 12 12 12 13 15 18 18 18 19 21 21 22 23 24 26 26 26 23 20 20 20 20 24 26 25 25 26 26 26 24 22 22 22 27 33 34 32 34 39 35 28 25 24 22 19 19 20 19 17 17 16 15 15 13 11 11 11 12 14 19 24 23 23 24
25 24 24 23 21 19 18 17 17 17 16 16 15 14 14 15 15 14 14 14 14 13 11 12 13 13 13 13 14 17 18 17 19 21 21 21 21 22 24 25 25 24 22 22 21 20 23 25 23 25 26 26 26 24 22 22 21 22 27 32 33 32 36 37 31 24 24 23 21 19 18 18 18 17 16 16 16 14 12 12 13 12 12 17 22 22 22 24
25 24 24 24 21 19 17 17 16 15 14 14 14 13 13 14 15 15 14 15 15 13 12 13 14 14 14 14 13 16 18 18 19 22 22 21 20 21 23 24 24 24 23 23 22 21 23 24 23 24 26 26 25 24 22 21 21 20 21 27 33 33 32 36 35 27 22 23 23 20 17 17 18 17 16 16 15 13 13 14 14 13 12 14 17 19 20 22
25 24 24 24 22 19 16 15 15 15 14 13 13 13 13 14 15 16 16 15 15 13 12 13 14 14 13 14 14 16 19 19 20 22 23 23 22 21 23 25 25 26 25 24 24 22 22 24 24 24 25 25 23 21 22 21 20 21 20 22 28 30 29 32 35 31 24 23 24 22 18 18 18 16 14 14 14 13 13 14 14 13 12 12 13 15 18 20
25 25 23 23 21 19 16 15 15 15 14 13 13 13 13 15 16 17 15 13 13 13 13 14 14 13 13 14 14 15 17 20 22 22 23 25 25 24 25 26 28 28 26 25 25 24 23 23 24 24 25 26 22 20 22 21 19 20 21 20 22 25 24 26 33 33 27 22 23 24 21 18 17 16 15 16 16 15 15 14 14 12 11 11 11 13 16 18
Wind_Direction
322 321 320 319 319 319 319 319 318 317 316 315 314 313 312 311 309 308 306 304 303 301 300 298 296 295 293 292 289 286 284 276 269 258 248 244 236 232 229 224 222 218 216 215 213 209 207 208 207 207 210 213 217 221 222 219 217 216 218 230 240 239 233 238 256 285 300 244 213 151 183 191 156 160 134 123 126 139 155 149 139 141 141 148 153 153 155 158
320 320 319 318 318 317 317 316 316 315 315 314 313 312 311 310 308 306 304 302 300 298 298 296 294 292 290 289 288 287 284 276 269 258 250 247 239 233 227 224 222 216 213 214 214 210 207 208 207 208 211 215 218 219 221 218 216 219 220 227 233 232 234 244 256 260 204 117 214 187 201 200 150 154 144 124 133 139 141 138 132 133 139 145 152 156 158 161
319 319 318 317 316 315 314 313 313 313 313 312 311 311 310 308 307 305 303 300 297 296 296 294 292 290 288 285 285 285 282 278 271 259 254 249 239 232 225 220 217 214 213 213 213 210 209 208 208 209 212 217 218 218 219 217 217 218 220 227 229 229 236 244 246 243 218 140 206 234 245 215 153 166 179 142 133 130 129 141 140 138 143 149 157 162 163 164
319 318 317 316 315 314 313 313 312 312 311 311 309 309 308 306 305 304 302 299 295 294 293 292 290 287 285 282 280 279 279 279 268 255 256 252 237 227 222 219 214 213 213 213 213 211 212 210 208 210 214 218 219 220 219 217 217 217 218 226 229 222 228 241 239 241 231 188 184 225 262 237 169 177 185 163 153 145 148 154 151 147 153 158 162 166 169 169
318 317 316 315 314 313 312 311 311 310 310 308 307 306 305 305 303 302 300 297 294 292 291 289 287 283 281 278 274 272 273 273 260 249 258 256 238 222 217 216 213 212 213 213 213 212 214 213 210 211 216 219 219 220 222 220 219 222 221 228 232 217 226 244 235 234 223 211 210 217 261 247 172 175 190 184 184 190 177 160 154 154 157 161 163 167 172 172
317 316 315 314 313 312 311 310 309 308 307 306 305 304 304 303 301 300 297 295 292 290 288 286 284 280 278 274 269 265 260 260 258 253 257 256 237 218 212 211 209 209 211 212 213 214 216 215 213 213 216 219 219 219 222 221 221 227 225 231 232 213 223 233 223 225 215 222 230 228 248 231 177 180 202 195 188 190 177 158 155 156 156 159 162 168 175 177
316 315 315 314 312 311 310 308 308 307 305 304 303 302 301 300 299 298 295 293 290 288 286 283 280 277 274 269 263 259 254 259 258 248 249 254 239 220 211 210 209 208 211 213 215 216 216 216 215 214 216 219 220 220 222 223 224 228 228 232 229 213 220 226 223 222 216 229 233 238 244 208 186 196 207 198 176 171 165 156 156 158 159 162 165 171 176 178
316 315 314 313 311 310 309 308 307 305 304 302 301 299 299 298 297 295 293 290 287 286 283 279 277 273 269 264 260 258 255 257 253 243 247 249 240 227 215 213 213 211 213 216 217 217 218 218 216 215 218 219 220 220 223 227 226 228 228 231 231 224 224 226 231 227 223 232 229 234 235 204 199 205 201 177 161 164 158 154 157 160 165 169 171 172 175 178
316 315 314 312 311 309 308 307 306 304 303 301 299 298 297 296 294 293 291 289 285 283 280 276 274 269 264 260 258 258 254 253 251 245 244 242 235 227 219 217 216 215 217 218 219 218 218 219 217 216 221 222 222 222 224 228 226 225 226 229 234 235 230 226 230 228 226 231 231 228 223 211 205 201 187 168 163 164 154 154 161 161 168 174 176 175 177 180
316 315 313 312 311 309 308 306 305 304 302 300 299 297 295 294 292 290 288 286 283 280 276 272 270 265 261 257 254 255 253 253 253 245 237 235 232 225 221 220 217 217 219 219 219 219 219 219 217 218 223 225 225 225 225 228 229 227 229 232 234 236 235 228 224 223 224 228 235 233 229 221 204 197 194 175 167 164 155 158 164 163 169 176 178 179 180 180
316 315 313 312 310 309 307 306 305 303 301 300 298 295 294 292 290 288 286 283 280 277 273 269 267 262 258 255 250 251 252 253 253 243 234 231 229 226 224 222 219 218 218 219 219 218 219 220 216 217 222 225 227 229 228 229 233 235 235 235 232 232 235 231 224 221 222 227 231 229 236 231 212 207 203 184 174 169 163 161 164 166 170 175 179 180 181 183
317 316 314 313 311 309 308 306 305 303 301 299 297 295 293 291 288 287 284 281 277 273 270 268 264 259 257 254 248 248 252 252 252 249 240 231 229 231 229 223 221 220 217 218 219 218 219 219 218 219 220 222 226 230 231 230 235 239 241 241 235 232 233 233 230 221 217 225 223 221 233 234 223 213 195 182 175 169 166 165 167 171 171 176 180 179 185 190
320 318 317 315 313 311 309 308 306 303 301 299 297 295 292 289 287 285 282 278 274 270 267 265 262 258 255 253 250 251 255 253 251 253 246 237 230 229 230 224 222 222 218 217 218 218 220 219 220 222 222 223 225 228 232 231 233 237 240 243 238 236 235 230 226 219 217 223 217 217 231 230 226 211 189 182 179 171 170 174 177 178 176 177 178 181 187 192
322 320 319 317 315 313 311 309 307 305 302 299 297 295 292 289 286 283 280 275 272 268 264 262 259 256 253 254 257 256 255 251 250 249 244 240 232 225 227 225 222 222 219 218 219 219 219 220 223 225 225 226 228 230 232 230 232 236 238 239 234 236 240 227 219 218 221 222 214 218 231 228 234 210 187 185 185 179 180 182 183 184 181 177 177 184 189 192
322 321 319 318 316 314 312 311 309 307 304 301 299 296 292 289 286 282 277 272 269 266 262 260 256 255 255 257 259 257 251 248 248 243 239 240 235 227 225 223 222 221 218 219 221 221 221 223 225 225 226 227 229 230 229 229 231 232 233 236 230 230 239 231 223 220 220 222 214 218 229 229 236 204 185 188 189 184 186 185 186 187 184 183 184 189 191 194
322 320 319 317 316 315 313 312 310 307 305 303 301 298 292 289 286 281 275 269 267 265 260 258 254 253 256 257 257 255 248 244 243 238 236 239 237 231 225 222 222 221 219 219 222 222 223 225 225 226 226 225 226 226 227 229 231 227 226 232 229 225 231 233 233 226 221 222 215 217 221 219 226 199 186 189 189 186 187 185 188 189 188 189 189 193 196 196
321 320 318 317 316 315 313 312 310 308 306 304 302 299 294 291 288 279 272 269 268 264 259 257 255 253 253 254 256 255 247 242 240 237 234 235 235 232 226 221 222 221 220 220 221 222 224 225 224 225 225 224 223 223 225 227 227 226 224 227 229 226 225 228 233 230 221 218 216 214 214 221 225 196 185 187 188 189 187 185 190 193 193 194 191 194 199 199
321 320 318 317 316 315 313 312 311 308 308 306 303 300 294 292 289 276 269 270 269 265 259 256 254 253 253 251 251 252 249 244 238 234 233 232 231 232 228 223 222 221 222 223 222 221 223 224 224 224 224 224 223 221 223 224 223 225 224 223 227 229 228 226 228 227 217 213 214 210 211 223 214 187 183 186 188 190 186 187 197 199 196 197 197 197 200 201
320 319 318 317 316 316 313 312 311 309 309 307 305 303 295 290 286 272 268 271 269 263 259 255 250 251 256 256 252 250 251 250 241 232 231 230 229 230 228 224 221 220 222 224 222 221 222 224 224 224 223 222 222 222 224 224 222 225 225 222 224 227 230 229 227 226 216 211 212 209 210 216 204 193 191 189 189 190 191 197 206 205 199 198 200 200 201 201
321 320 319 318 317 316 313 312 310 309 309 307 306 303 296 294 286 274 274 274 268 262 259 258 253 252 256 258 255 252 252 253 245 232 228 228 226 226 227 223 220 221 224 224 222 221 222 227 227 225 223 221 221 223 224 224 224 225 227 227 224 225 228 229 228 227 218 210 211 211 214 216 208 204 200 194 196 198 200 207 211 207 202 201 202 200 201 203
321 320 319 318 317 317 314 312 310 308 308 306 305 303 300 300 291 282 282 275 266 262 258 257 255 252 252 252 252 252 251 251 247 236 229 226 223 224 224 221 220 223 223 222 223 222 224 229 228 225 224 223 222 222 224 224 225 226 228 231 228 225 226 227 227 226 219 213 212 211 215 217 213 209 205 202 206 207 207 212 212 208 207 210 208 203 203 204
321 320 320 319 317 317 315 313 310 308 308 306 304 304 303 301 293 287 286 277 268 266 260 256 254 251 249 248 248 247 245 246 247 242 231 223 222 223 222 221 222 223 221 221 223 223 225 229 226 223 224 225 224 222 222 224 226 226 227 231 232 229 227 226 226 226 222 219 214 208 211 218 218 216 211 210 216 216 213 213 214 211 212 217 211 204 205 204
320 319 319 318 317 316 315 313 310 308 307 306 305 306 304 300 295 290 286 278 272 270 263 255 251 248 246 244 244 242 240 239 242 241 231 222 222 223 222 222 222 222 220 221 223 223 226 228 224 224 225 224 224 223 221 222 225 227 226 228 230 230 230 227 225 226 225 222 217 211 215 223 222 219 215 215 220 221 216 214 215 213 214 215 209 205 206 203
319 318 318 317 316 315 314 312 309 308 307 306 306 307 305 301 297 294 287 279 275 273 266 257 250 247 244 241 239 237 236 236 236 237 229 222 223 223 223 224 222 223 223 221 223 225 227 225 221 224 225 223 224 223 222 221 224 226 226 226 227 227 231 231 227 226 226 225 220 216 222 227 221 219 218 218 220 219 214 214 216 216 215 212 209 210 210 205
319 318 317 316 316 315 313 310 309 310 308 306 307 307 305 302 298 295 288 280 276 271 267 258 249 247 243 238 237 234 233 234 234 235 230 222 222 223 223 225 223 225 224 221 223 227 227 224 220 222 224 224 224 224 223 222 223 225 226 226 226 226 229 231 231 229 227 228 222 214 221 228 222 220 221 220 221 219 216 217 218 216 213 209 210 213 211 208
319 318 316 316 315 315 312 308 309 310 307 306 307 306 304 301 299 296 288 279 275 270 265 255 246 248 243 235 233 232 233 235 232 233 232 225 223 223 223 225 226 226 224 223 226 229 226 224 224 223 221 223 225 226 223 221 224 226 224 223 225 227 228 230 232 233 231 230 224 215 219 229 225 223 223 220 220 220 218 220 219 215 212 211 212 213 211 207
320 318 317 316 314 314 311 307 308 309 306 305 307 306 303 301 299 295 285 273 270 267 260 252 247 250 247 233 225 227 233 233 229 231 232 227 223 223 224 225 225 226 223 223 228 228 223 221 225 225 221 222 224 225 222 219 224 226 220 219 221 224 228 229 231 234 233 235 233 222 220 227 229 226 223 217 218 219 219 220 219 215 213 213 213 212 210 208
321 319 318 316 314 312 307 304 307 307 305 306 307 305 303 301 297 290 279 268 268 264 257 254 248 249 255 237 222 226 234 229 226 230 229 226 223 221 224 225 225 225 222 224 228 226 220 220 223 224 223 224 223 222 220 219 223 224 219 218 219 220 225 228 231 233 234 238 241 229 219 224 232 231 226 220 220 220 219 219 220 216 214 216 216 212 210 212
321 319 317 316 314 311 307 304 304 305 306 308 308 305 303 300 294 283 270 263 264 267 262 257 249 251 262 245 224 228 234 229 230 229 224 224 223 222 225 225 225 226 224 227 230 226 222 222 222 223 225 225 222 220 219 220 222 220 219 221 220 218 221 224 228 232 235 236 238 231 222 226 234 231 226 223 224 223 221 221 221 218 216 217 217 213 211 213
321 319 317 315 313 312 310 306 304 304 307 309 308 307 304 299 292 280 267 259 262 272 267 257 255 258 263 254 234 231 232 232 234 230 222 222 222 223 225 223 224 227 227 228 230 229 226 224 221 223 225 224 222 220 218 220 219 216 217 220 221 220 218 221 225 229 235 235 233 229 226 232 238 230 225 227 227 222 221 223 223 221 217 216 216 214 212 213
322 319 317 315 312 311 310 308 307 307 309 309 307 307 304 299 293 280 268 263 264 271 268 260 261 260 258 257 248 239 235 233 232 230 225 221 220 221 221 220 222 225 227 228 228 228 227 225 222 222 222 221 221 220 218 218 216 214 214 215 219 221 217 218 220 223 231 235 233 231 230 235 238 230 228 231 226 217 217 223 223 219 216 214 216 214 211 210
323 320 318 314 311 310 307 306 309 309 310 310 307 305 302 299 293 279 273 273 266 265 267 265 266 262 255 253 248 244 241 234 230 230 227 222 221 220 219 219 219 220 225 227 226 226 225 225 224 223 220 218 218 219 217 215 212 212 212 211 213 216 215 217 217 220 229 234 230 231 233 235 235 233 230 228 222 216 220 225 222 217 214 213 213 211 209 209
324 322 319 314 312 311 307 307 311 313 313 312 308 305 302 299 294 285 282 277 265 265 268 266 268 263 255 250 244 246 247 235 228 230 228 224 223 222 220 220 219 220 224 226 225 225 224 224 224 223 221 217 216 216 214 212 210 209 210 209 209 211 213 217 219 221 228 230 227 228 233 236 238 236 229 225 224 222 224 224 219 216 212 211 213 211 209 211
325 323 320 317 315 312 311 311 315 318 317 314 312 311 305 297 295 295 293 283 270 269 268 267 268 262 254 246 239 248 251 236 231 233 229 224 223 222 220 220 220 222 224 224 225 224 224 223 221 221 219 214 214 216 214 212 211 211 211 211 212 213 214 217 220 221 224 227 224 222 227 232 233 232 227 227 230 227 225 219 215 216 214 212 214 212 210 213
326 323 319 319 318 316 316 316 320 321 318 315 315 316 311 302 301 301 300 296 282 272 270 268 263 256 252 241 236 255 254 233 236 239 227 223 222 221 220 220 220 222 223 224 224 224 226 226 222 220 219 216 214 216 214 212 213 212 211 214 216 214 214 218 223 221 220 226 224 220 225 230 231 233 230 229 230 228 227 219 213 215 215 213 214 213 212 213
328 325 321 320 319 318 320 321 322 320 316 315 314 313 312 307 305 302 300 304 296 281 273 267 255 248 248 241 242 258 252 235 240 236 224 224 223 222 223 221 219 221 223 225 224 223 226 226 221 218 219 218 216 214 213 212 213 211 211 215 216 212 214 220 225 221 220 228 227 225 231 233 233 239 234 228 227 226 226 223 218 216 212 211 212 212 211 211
331 328 322 320 319 318 320 321 320 317 314 314 310 308 310 309 309 307 303 307 303 289 274 263 250 244 246 245 245 252 250 241 239 232 224 222 220 221 225 221 218 222 225 227 227 225 226 228 223 218 217 217 215 214 214 214 213 211 212 213 211 211 216 219 223 220 218 227 228 226 231 230 228 234 233 229 228 226 224 223 220 217 213 212 212 211 211 212
331 327 320 317 319 318 319 318 315 314 313 311 307 308 310 310 313 313 311 311 305 292 275 261 251 244 244 245 243 246 248 241 233 230 225 216 212 216 220 218 220 226 228 230 228 224 225 229 225 219 216 215 213 214 214 215 214 214 213 210 208 213 214 213 218 219 217 225 229 226 228 228 227 228 227 227 228 226 224 221 217 214 213 213 211 209 210 210
333 329 322 323 325 322 321 319 313 311 311 309 309 310 310 311 314 314 313 312 305 293 278 265 256 247 243 244 242 241 242 237 230 225 220 216 221 227 222 220 225 231 233 231 224 220 222 226 225 220 215 211 210 213 212 211 212 213 213 210 210 215 214 212 218 220 218 224 228 227 227 228 230 229 224 224 225 224 223 221 216 212 212 212 210 208 208 208
335 329 320 324 328 324 322 318 310 309 306 304 306 310 311 312 314 314 312 309 305 296 282 269 261 252 246 244 241 239 237 233 230 224 220 224 230 229 220 218 225 234 236 230 220 217 218 220 222 221 215 210 209 212 211 209 207 210 211 209 209 211 212 214 219 220 220 223 225 227 232 234 235 232 225 223 222 219 217 217 215 211 210 210 210 209 207 206
334 327 315 319 323 321 321 316 310 309 305 301 304 309 310 309 311 313 312 311 308 298 287 275 263 253 247 241 239 240 236 231 230 225 223 226 226 222 221 225 229 233 232 224 216 215 215 216 219 219 215 213 211 211 211 210 208 209 212 212 210 208 208 212 218 218 218 222 224 225 234 239 237 235 228 222 219 216 211 211 212 208 206 208 209 207 204 203
334 326 316 319 321 319 317 312 307 308 305 303 306 311 312 307 308 313 314 313 310 300 290 279 265 256 248 239 237 239 235 231 230 227 226 229 226 222 226 235 236 230 226 220 217 218 216 214 215 216 215 216 216 212 210 210 209 210 213 215 213 211 210 211 216 215 214 220 226 230 234 236 238 241 230 215 211 213 209 208 209 205 205 206 205 203 201 200
334 327 319 321 324 321 315 308 305 305 303 302 305 310 313 307 306 311 312 311 310 304 294 281 269 260 250 240 236 236 234 231 229 229 233 234 227 223 228 236 237 231 223 217 214 218 216 211 212 215 215 218 221 214 209 208 208 210 213 214 214 214 212 213 216 213 212 215 220 225 229 229 240 250 221 202 203 208 206 205 205 204 205 205 202 201 201 200
332 327 320 320 327 325 315 308 307 306 305 304 305 309 309 306 307 310 310 310 310 307 296 285 275 264 254 244 236 234 234 230 227 231 237 232 224 224 227 233 235 227 219 216 216 219 216 210 208 211 210 212 216 211 205 205 207 210 212 213 214 215 211 211 214 213 214 216 213 215 222 224 230 228 188 187 195 198 199 203 203 202 203 202 199 199 199 199
332 330 324 323 326 325 315 311 310 307 307 308 309 310 308 307 310 310 310 311 310 307 299 290 281 269 259 248 237 233 232 231 230 233 234 228 223 223 226 231 232 225 222 226 226 220 214 210 209 208 206 205 205 202 202 205 207 209 212 211 213 215 212 209 211 212 215 216 212 212 218 223 223 212 195 186 185 190 198 204 202 200 200 199 198 197 198 199
336 335 332 330 328 321 314 315 315 310 309 310 310 310 309 309 309 310 312 311 309 307 300 294 289 277 263 251 240 235 233 234 234 232 229 226 223 222 227 230 228 227 229 232 229 217 210 209 209 208 209 209 208 208 211 213 210 207 209 210 210 212 213 210 208 211 213 211 213 215 212 215 218 213 211 206 191 192 199 201 198 196 196 198 199 199 199 200
343 342 341 339 334 325 318 318 317 313 310 309 309 308 308 308 308 310 311 309 309 308 301 295 293 284 269 258 246 238 236 237 237 232 227 227 226 225 228 228 225 227 230 228 225 217 208 207 208 210 213 214 215 218 221 221 215 207 207 210 209 209 212 212 209 209 208 206 214 216 208 208 215 212 211 208 196 193 199 201 195 189 192 195 198 200 200 200
349 347 347 347 342 335 327 319 314 310 307 307 308 306 307 309 309 311 312 310 309 308 303 298 295 289 279 268 253 242 240 240 237 231 226 227 229 226 227 226 221 222 225 223 221 216 209 208 209 213 217 215 214 218 219 219 217 209 206 210 210 207 209 213 211 207 205 206 213 212 204 206 211 209 206 205 202 200 204 202 190 185 189 192 194 197 199 199
350 348 347 348 344 336 329 322 313 309 308 310 309 306 308 310 310 311 311 309 307 303 302 300 296 293 286 275 260 245 241 241 237 231 226 226 228 226 226 224 217 216 220 220 218 214 210 211 213 217 218 214 210 212 215 216 217 212 208 211 212 209 208 211 212 208 205 206 209 206 202 206 209 205 203 206 208 204 199 195 185 180 183 186 189 194 196 196
350 349 347 347 344 334 328 328 324 319 315 312 308 308 312 313 313 314 310 306 304 300 299 297 296 295 287 278 268 250 243 242 237 233 230 227 225 224 222 219 217 220 222 221 219 215 212 213 216 216 213 207 207 211 214 215 216 216 215 213 211 209 207 207 209 210 205 204 206 203 198 200 203 203 203 205 203 194 192 194 189 181 178 179 186 192 193 195
347 347 345 346 345 340 334 334 334 331 326 319 310 309 310 310 312 314 309 303 302 300 298 298 298 297 289 282 274 258 247 243 237 236 236 230 224 223 221 220 221 224 224 222 220 217 215 214 213 212 208 204 208 213 215 218 220 218 217 212 205 206 208 206 206 209 206 201 203 202 198 200 203 202 199 195 187 181 186 190 186 182 180 177 179 185 189 193
345 345 345 345 345 344 340 338 335 333 334 330 320 312 308 306 309 311 309 304 303 302 301 300 297 294 290 286 281 267 253 244 239 238 238 233 228 224 223 224 224 223 221 220 219 217 217 215 212 210 208 209 213 214 213 217 218 212 212 208 200 201 208 207 204 206 206 201 201 203 203 205 205 199 191 184 180 180 183 183 179 177 176 174 176 181 185 189